Home   Weather   Istres   Past weeks

Flag for France Past Weather in Istres, Provence-Alpes-Côte d'Azur, France — Yesterday and Last 2 Weeks

Now
68 °F

Clear.


Feels Like: 68 °F
Forecast: 65 / 92 °F
Wind: 5 mph from Northeast

Location: Istres Airport

Current Time: Aug 31, 2016 at 6:27:27 AM

Latest Report: Aug 31, 2016 at 6:00 AM


Visibility: 10 mi

Pressure: 30.07 "Hg

Humidity: 88%

Dew Point: 64 °F

Location of IstresLocation

Past Weather in Istres — Graph

°F

Istres Temperature Yesterday

Maximum temperature yesterday: 86 °F (at 2:30 PM)
Minimum temperature yesterday: 66 °F (at 7:30 AM)
Average temperature yesterday: 75 °F

High & Low Weather Summary for the Past Weeks

 TemperatureHumidityPressure
High91 °F (Aug 29, 4:30 PM)94% (Aug 16, 6:30 AM)30.24 "Hg (Aug 16, 6:30 AM)
Low63 °F (Aug 21, 6:00 AM)24% (Aug 22, 2:30 PM)29.80 "Hg (Aug 17, 6:00 PM)
Average76 °F58%30.02 "Hg
* Reported Aug 16 5:00 AM — Aug 31 5:00 AM, Istres, Weather by CustomWeather, © 2016

Note: Actual official high and low records may vary slightly from our data, if they occured in-between our weather recording intervals... More about our weather records

Advertising

Istres Weather History for the Previous 24 Hours

Scroll right to see more
 ConditionsComfort  
Time TempWeatherWind HumidityBarometerVisibility
5:00 AM
Wed, Aug 31
68 °FClear.6 mph88%30.07 "Hg10 mi
4:30 AM68 °FClear.5 mph88%30.09 "Hg10 mi
4:00 AM70 °FClear.7 mph83%30.07 "Hg10 mi
3:30 AM70 °FClear.6 mph88%30.09 "Hg10 mi
3:00 AM70 °FClear.6 mph88%30.09 "Hg10 mi
2:30 AM70 °FClear.5 mph88%30.09 "Hg10 mi
2:00 AM70 °FClear.5 mph88%30.09 "Hg10 mi
1:30 AM70 °FClear.5 mph88%30.09 "Hg10 mi
1:00 AM72 °FClear.3 mph83%30.09 "Hg10 mi
12:30 AM72 °FClear.5 mph83%30.09 "Hg10 mi
12:00 AM73 °FClear.2 mph78%30.09 "Hg10 mi
11:30 PM
Tue, Aug 30
73 °FPassing clouds.5 mph78%30.07 "HgN/A
11:00 PM75 °FClear.5 mph69%30.09 "Hg10 mi
10:30 PM75 °FClear.1 mph69%30.09 "Hg10 mi
10:00 PM75 °FClear.5 mph74%30.07 "Hg10 mi
9:30 PM75 °FClear.5 mph74%30.07 "Hg10 mi
9:00 PM75 °FSunny.7 mph74%30.07 "Hg10 mi
8:30 PM75 °FMild.10 mph69%30.07 "HgN/A
8:00 PM75 °FMild.12 mph69%30.04 "HgN/A
7:30 PM77 °FSunny.16 mph61%30.04 "Hg10 mi
7:00 PM77 °FSunny.16 mph65%30.04 "Hg10 mi
6:30 PM79 °FSunny.12 mph61%30.04 "Hg10 mi
6:00 PM79 °FPassing clouds.10 mph61%30.04 "HgN/A
5:30 PM81 °FSunny.12 mph58%30.01 "Hg10 mi
5:00 PM81 °FPassing clouds.12 mph58%30.01 "HgN/A
4:30 PM81 °FWarm.13 mph58%30.01 "HgN/A
4:00 PM82 °FWarm.14 mph55%30.01 "HgN/A
3:30 PM82 °FThundershowers. Cloudy.15 mph55%30.01 "HgN/A
3:00 PM84 °FPassing clouds.14 mph45%30.04 "HgN/A
2:30 PM86 °FPassing clouds.12 mph43%30.01 "HgN/A
2:00 PM84 °FPartly sunny.5 mph48%30.04 "HgN/A
1:30 PM82 °FPartly sunny.5 mph48%30.04 "HgN/A
1:00 PM81 °FPartly sunny.7 mph51%30.04 "HgN/A
12:30 PM79 °FPartly sunny.8 mph51%30.04 "HgN/A
12:00 PM79 °FPartly sunny.9 mph48%30.04 "HgN/A
11:30 AM77 °FMostly cloudy.9 mph47%30.04 "HgN/A
11:00 AM75 °FPartly sunny.8 mph50%30.04 "HgN/A
10:30 AM75 °FPartly sunny.8 mph50%30.04 "HgN/A
10:00 AM73 °FPartly sunny.9 mph53%30.04 "HgN/A
9:30 AM72 °FPassing clouds.12 mph57%30.04 "HgN/A
9:00 AM70 °FSunny.12 mph60%30.04 "Hg10 mi
8:30 AM68 °FSunny.12 mph64%30.04 "Hg10 mi
8:00 AM68 °FClear.8 mph64%30.01 "Hg10 mi
7:30 AM66 °FClear.10 mph68%30.01 "Hg10 mi
7:00 AM68 °FClear.13 mph64%30.01 "Hg10 mi
6:30 AM68 °FClear.13 mph60%30.01 "Hg10 mi
6:00 AM68 °FClear.15 mph60%30.01 "Hg10 mi
Weather by CustomWeather, © 2016

See weather overviewHow to use our weather pages